Regional Weather Roundup
Issued by NWS

Home | Current Version | Previous Version | Text Only | Print | Product List | Glossary On
Versions: 1 2 3 4 5 6 7 8 9 10 11 12 13 14 15 16 17 18 19 20 21 22 23 24 25 26 27 28 29 30 31 32 33 34 35 36 37 38 39 40 41 42 43 44 45 46 47 48 49 50
000
ASUS44 KEWX 260710
RWRTX
SOUTH TEXAS REGIONAL WEATHER ROUNDUP
NATIONAL WEATHER SERVICE AUSTIN/SAN ANTONIO TX
100 AM CST FRI DEC 26 2014

NOTE: "FAIR" INDICATED FEW OR NO CLOUDS BELOW 12,000 FEET WITH NO
SIGNIFICANT WEATHER AND/OR OBSTRUCTIONS TO VISIBILITY.

* - THESE STATIONS ARE NOT NWS OR FAA STATIONS...AND ARE NOT SUBJECT
    TO NWS AND FAA QUALITY CONTROL.

TXZ171-172-183>190-260800-
TEXAS HILL COUNTRY AND EDWARDS PLATEAU

CITY           SKY/WX    TMP DP  RH WIND       PRES   REMARKS
JUNCTION       CLOUDY    52  31  44 S14G23    29.90F
*LLANO         CLOUDY    55  46  71 S12G22    29.96F
BURNET         CLOUDY    55  46  71 S16G23    29.95S
*HORSESHOE BAY CLOUDY    56  46  69 S10G20    29.95S
*KERRVILLE     MOCLDY    51  47  85 SE13      29.96F
*FREDERICKSBRG CLOUDY    54  46  75 S12       29.95S
*ROCKSPRINGS   CLOUDY    48  43  81 S16G24    29.93F WCI  42
*BOERNE STAGE  CLOUDY    54  46  76 S9        29.98F
HONDO          MOCLDY    52  46  80 SE9       29.99F
*UVALDE        CLEAR     45  41  85 E7        29.96F WCI  41
DEL RIO        MOCLDY    52  40  63 SE13      29.90S
LAUGHLIN AFB   NOT AVBL
CARRIZO SPRGS  CLEAR     46  41  81 E5        29.92F WCI  44
$$

TXZ173-191>194-202-209-217>225-228-260800-
CENTRAL AND SOUTH CENTRAL TEXAS

CITY           SKY/WX    TMP DP  RH WIND       PRES   REMARKS
GEORGETOWN     CLOUDY    54  46  76 S13G21    29.95S
AUSTIN/BERGSTM CLOUDY    54  49  83 S9        29.98F
AUSTIN/MABRY   CLOUDY    55  48  77 S7        29.98F
*AUSTIN/EXEC   CLOUDY    54  48  82 S7        29.98F
*LAGO VISTA    CLOUDY    56  48  74 S12G23    29.96F
SAN MARCOS     CLOUDY    55  46  71 S9        29.99F
NEW BRAUNFELS  CLOUDY    56  49  77 SW6       29.98S
RANDOLPH AFB   CLOUDY    56  48  75 S5        29.99F
PT SAN ANTONIO CLOUDY    55  48  76 SE2       29.97F
SAN ANTONIO    CLOUDY    56  48  74 S5        29.99F
STINSON FIELD  CLOUDY    55  48  77 N3        29.97F
*PLEASANTON    CLOUDY    56  49  75 CALM      29.98S
*LA GRANGE     CLOUDY    59  53  80 S6        29.99S
*GIDDINGS      CLOUDY    57  49  76 S9        30.03S
*GONZALES      CLOUDY    56  52  85 SE7       29.99F
$$

TXZ163>164-176>182-195>201-210>213-226-227-235-260800-
SOUTHEAST TEXAS

CITY           SKY/WX    TMP DP  RH WIND       PRES   REMARKS
COLLEGE STN    CLOUDY    57  48  72 S16       30.00F
*BRYAN         CLOUDY    56  49  76 SE12      30.00F
*CALDWELL      CLOUDY    55  50  82 S14       30.02S
*CROCKETT        N/A     54  50  87 SE5       30.05S
*BRENHAM       CLOUDY    56  50  80 SE5       30.01F
HUNTSVILLE     CLOUDY    53  47  79 CALM      30.02F
CONROE         CLOUDY    51  48  89 SE6       30.04F
HOUSTON BUSH   CLOUDY    56  50  80 SE5       30.03F
HOUSTON HOBBY  CLOUDY    57  52  83 SE3       30.03F
*HOUSTON SW AP CLOUDY    53  50  90 SE3       30.03F
PEARLAND       CLOUDY    60  53  77 SE12      30.05F
HOUSTON HOOKS  CLOUDY    53  48  83 CALM      30.03F
ELLINGTON FLD  MOCLDY    59  54  82 SE3       30.04F
SUGAR LAND     CLOUDY    56  50  80 SE6       30.02F
*HOUSTON EXEC  CLOUDY    55  50  82 SE6       30.03F
*CLEVELAND MUN CLOUDY    49  48  98 CALM      30.05F
*WHARTON       CLOUDY    57  54  89 SE9       30.02F
*COLUMBUS      CLOUDY    58  52  79 S5        30.00F
$$

TXZ214>216-236>238-260800-
THE UPPER TEXAS COAST

CITY           SKY/WX    TMP DP  RH WIND       PRES   REMARKS
*ORANGE        CLOUDY    58  53  85 SE6       30.10F
PORT ARTHUR    CLOUDY    61  53  75 SE15G24   30.07F
GALVESTON      CLOUDY    63  56  78 S16       30.05F
ANGLETON       CLOUDY    62  55  77 S13       30.02F
*BAY CITY        N/A     62  57  86 S8        30.02F
PALACIOS       CLOUDY    64  56  75 S12       30.01F
$$

TXZ229>234-239>247-260800-
TEXAS COASTAL BEND AND RIO GRANDE PLAINS

CITY           SKY/WX    TMP DP  RH WIND       PRES   REMARKS
VICTORIA       CLOUDY    59  54  83 SE7       29.99F
*BEEVILLE      CLOUDY    63  55  74 S15       29.96F
ROCKPORT       CLOUDY    66  57  72 S7G18     29.98F
*PORT ARANSAS  CLOUDY    65  58  78 S15       29.97F
*PORT LAVACA   CLOUDY    63  56  79 S9        30.00F
*INGLESIDE     CLOUDY    67  57  70 S15       29.97F
CORPUS CHRISTI CLOUDY    65  56  72 S15       29.97F
CORPUS NAS     CLOUDY    66  58  75 S15       29.98F
*ROBSTOWN      NOT AVBL
ALICE          CLOUDY    65  55  70 SE16G22   29.94F
KINGSVILLE NAS CLOUDY    66  58  75 SE16G22   29.96F
COTULLA        MOCLDY   N/A N/A N/A E6        29.95S
LAREDO         NOT AVBL
$$

TXZ248>255-260800-
DEEP SOUTH TEXAS

CITY           SKY/WX    TMP DP  RH WIND       PRES   REMARKS
BROWNSVILLE    CLOUDY    67  60  78 S14       29.97F
PORT ISABEL    LGT RAIN  67  59  75 S15       29.96F
*SOUTH PADRE   CLOUDY    66  61  82 E15G21    29.97F
HARLINGEN      CLOUDY    64  60  87 S8        29.95F
*HEBBRONVILLE  CLOUDY    58  53  83 SE12      29.94F
MCALLEN        CLOUDY    62  56  80 SE6       29.96F
*WESLACO       CLOUDY    65  58  78 S13G18    29.95F
FALFURRIAS     CLOUDY    65  56  72 SE16G23   29.94F
EDINBURG       CLOUDY    61  54  78 CALM      29.97F
*ZAPATA        CLEAR     59  51  75 SE10G17   29.91F
$$

TXZ213>215-236>238-242>244-246-247-251-254-255-260800-
CMAN STATIONS

STATION/POSITION TIME  TEMP    WIND        PRES    WAVE
                       AIR SEA DIR/SP/G            HT/PER
                 (UTC) (F)     (DEG/KT/KT) (MB)    (FT/S)
SABINE PASS      0700          170/ 14/ 21   N/A
SEA RIM ST PARK  0700   61     150/ 13/ 16 1018.9
NORTH JETTY/GLS  0700   64 62  190/ 16/ 18   N/A
EAGLE POINT      0700   63 56  180/ 15/ 18 1017.1
MORGANS POINT    0700   60      CALM  /  3 1017.2
MISSION/ARANSAS  0600   63     160/ 13     1017.0
PORT O`CONNOR    0700          150/ 15/ 17   N/A
PORT ARANSAS     0700   66 60  150/ 19/ 21 1015.4
MALAQUITE BEACH  0700          140/ 19/ 21   N/A
BAFFIN BAY       0700          180/ 14/ 17   N/A
PORT ISABEL      0700          150/ 11/ 15   N/A
$$

GMZ080-GMZ150>470-260800-
OFFSHORE BUOY REPORTS

STATION/POSITION TIME  TEMP    WIND        PRES    WAVE
                       AIR SEA DIR/SP/G            HT/PER
                 (UTC) (F)     (DEG/KT/KT) (MB)    (FT/S)
20 E GALVESTON   0700   64 60  160/ 17/ 19 1017.0    6/ 6
90 E PT ARANSAS  0700   69 72  160/ 21/ 25 1016.8    8/ 6
35 NE PT MANSFLD 0700   69 72  170/ 23/ 29 1014.8    8/ 7
200 E PT ISABEL  0700   69 73  150/ 19/ 23 1017.8    4/ 5
$$



USA.gov is the U.S. government's official web portal to all federal, state and local government web resources and services.